Location: North Runcton
(52.7000°N, 0.4333°E)
Time: 00:25:40
(UTC+00:00)

ARIANE 6 FM1 Upper Stage - Pass Details

Date: 19 May 2025
Orbit: 531 x 610 km, 62.0° (Epoch: 18 June)

Event Time Altitude Azimuth Distance (km) Brightness Sun altitude
Rises 21:56:35 0° 242° (WSW) 2,668 6.1 -12.9°
Reaches altitude 10° 21:58:48 10° 247° (WSW) 1,782 5.3 -13.1°
Maximum altitude 22:02:44 56° 326° (NW) 647 3.3 -13.4°
Drops below altitude 10° 22:06:44 10° 46° (NE) 1,813 5.5 -13.6°
Sets 22:09:01 0° 50° (NE) 2,720 6.4 -13.8°
